Wind_Speed
14 16 18 19 18 18 18 17 16 15 15 14 14 13 13 13 13 14 16 19 20 20 21 24 25 23 22 21 20 18 17 16 15 15 15 15 15 14 13 13 13 13 13 13 12 11 11 11 10 9 9 9 10 10 10 11 11 11 11 11 10 9 8
9 12 16 18 18 18 18 18 17 16 15 15 15 15 14 14 14 14 16 18 21 21 22 24 25 24 23 22 21 19 18 17 16 15 15 15 15 14 14 14 13 13 13 13 12 12 12 11 11 10 10 10 10 10 11 12 12 13 12 12 10 9 8
13 10 12 16 18 19 19 19 18 17 16 15 14 14 14 14 14 15 16 19 21 23 23 23 25 25 25 23 21 20 19 18 17 15 15 15 15 15 15 15 15 14 13 13 12 12 12 12 11 10 10 10 10 11 11 13 14 14 13 12 11 9 8
19 13 11 14 18 20 21 20 19 18 17 15 15 15 15 15 16 16 17 19 21 23 24 24 25 26 26 25 23 21 19 19 18 17 16 16 16 16 16 15 15 15 14 14 14 13 13 12 11 11 11 11 11 11 12 14 15 15 14 13 11 10 9
21 18 15 14 15 17 20 20 19 18 17 16 16 16 17 17 17 16 15 17 21 23 25 26 27 28 28 27 25 23 21 20 19 18 17 17 16 16 16 16 15 16 16 16 15 15 14 14 13 12 12 12 11 11 13 14 15 14 14 13 12 11 10
22 20 17 15 12 13 17 19 19 19 18 18 18 18 18 18 16 15 14 15 19 23 25 27 27 28 28 28 27 26 24 22 21 20 18 17 17 16 16 16 16 16 17 17 16 16 15 15 14 13 12 12 11 11 12 14 15 14 14 14 13 12 11
23 20 19 18 15 12 15 17 19 20 20 20 21 21 20 19 17 15 13 14 17 21 23 24 25 26 27 28 29 27 26 24 22 21 20 18 17 17 17 16 16 17 17 17 17 16 15 15 14 13 13 12 11 11 11 13 14 14 14 14 14 13 12
23 21 20 21 20 17 16 17 17 20 22 23 23 22 21 19 18 16 13 13 15 18 20 22 25 26 27 28 29 28 27 26 25 23 21 20 19 18 18 17 17 17 16 16 17 16 16 15 14 13 13 12 11 11 11 13 14 15 15 15 15 14 13
25 24 23 23 23 22 20 18 17 19 23 24 24 22 21 20 18 16 14 13 14 17 19 21 24 27 28 29 29 29 29 28 27 25 23 21 20 20 19 19 18 18 17 17 17 17 16 16 15 14 13 12 11 11 12 13 15 16 16 16 16 16 14
27 28 28 26 25 25 25 23 20 20 23 25 25 24 22 21 19 18 16 14 13 16 20 23 25 28 29 29 29 31 31 30 29 27 25 23 22 22 21 21 20 19 19 19 18 17 17 16 15 14 13 13 12 12 13 14 15 16 17 18 18 17 16
31 32 32 30 29 30 30 26 22 21 23 26 26 25 23 22 21 19 17 15 14 16 20 23 26 28 29 30 30 30 30 30 30 28 27 25 24 24 23 22 21 20 20 20 19 18 18 17 16 14 14 14 13 13 13 14 15 16 17 18 18 18 17
34 35 34 33 32 34 34 32 28 26 27 28 29 28 26 24 23 22 20 18 16 16 18 21 24 27 29 30 30 30 29 29 29 28 28 28 27 26 26 25 23 21 21 21 21 20 19 18 17 16 15 15 15 14 14 14 15 16 16 17 17 17 17
35 36 36 35 34 34 35 35 33 31 31 33 34 33 30 28 27 26 24 22 20 19 19 20 23 25 28 30 30 30 29 29 28 29 29 29 29 29 28 27 26 24 22 22 22 22 21 20 19 18 18 17 16 16 15 14 14 15 15 15 16 17 17
36 36 36 36 35 36 36 36 34 32 32 35 37 36 35 34 33 31 29 27 25 24 22 21 22 24 26 28 29 29 29 29 29 30 30 30 31 31 31 29 28 27 25 24 23 23 23 22 21 21 20 19 18 18 17 15 14 14 14 15 16 17 17
36 37 37 36 36 37 39 39 38 35 33 34 36 36 36 36 36 35 34 32 31 28 26 25 25 25 26 27 28 28 29 30 31 31 32 32 32 32 32 31 30 29 28 26 25 24 24 24 24 23 21 20 20 19 18 16 15 14 14 15 16 17 18
37 38 38 37 37 38 40 42 42 40 37 35 35 36 36 36 37 37 36 35 34 32 30 29 28 27 27 27 27 28 30 31 32 32 33 33 33 32 33 33 32 31 30 28 27 26 25 25 25 24 22 22 21 20 19 18 17 17 16 17 17 18 19
38 38 37 38 39 39 41 44 45 44 42 40 38 37 37 36 37 37 37 37 36 34 32 32 31 30 28 28 29 30 31 32 32 32 32 32 32 33 33 34 34 33 32 30 29 28 27 26 25 24 23 23 22 21 20 19 19 19 19 19 19 19 19
40 40 39 40 41 42 42 44 46 47 46 44 42 41 40 39 37 38 38 38 38 37 35 34 33 31 30 30 31 31 31 31 31 31 31 31 30 31 32 33 34 34 33 32 31 30 29 27 25 25 24 24 23 22 21 21 21 21 21 21 21 21 21
43 43 42 42 43 44 43 43 45 48 47 46 45 44 43 42 41 40 40 41 40 40 38 37 36 34 32 32 31 30 29 29 29 29 29 29 28 29 30 31 32 32 33 33 33 32 31 29 28 27 26 25 25 24 23 22 23 23 23 23 23 22 22
47 46 44 43 44 45 44 43 45 48 49 48 47 46 45 45 44 43 43 42 42 41 41 40 39 37 35 33 31 29 28 27 26 26 27 28 29 29 29 28 29 30 32 33 34 34 33 32 31 30 29 28 27 26 25 25 24 25 24 24 24 24 23
51 49 48 47 46 46 45 43 44 47 50 49 48 48 48 47 47 46 45 44 43 42 40 40 39 37 36 36 32 29 27 25 24 25 26 28 29 30 29 28 28 30 31 33 34 35 34 34 34 33 32 31 31 30 28 27 27 27 26 25 25 25 24
56 55 53 51 50 50 50 47 44 46 49 50 50 51 51 50 50 49 48 46 44 41 39 39 39 35 32 33 31 28 27 26 25 26 26 28 30 30 30 29 29 30 32 33 34 35 36 36 36 35 35 34 33 32 30 30 30 30 29 27 27 26 24
60 60 60 57 54 53 54 51 48 47 49 51 52 52 52 51 50 49 48 47 44 41 40 40 40 35 31 30 29 27 27 27 27 27 27 28 30 31 31 31 31 32 33 34 34 35 36 36 36 36 36 36 35 34 33 33 33 33 32 30 29 27 25
61 65 64 61 57 56 55 53 52 52 52 52 52 51 50 49 49 49 48 46 44 42 41 41 40 37 35 33 31 30 29 29 29 29 28 27 28 30 32 33 33 34 34 34 35 35 35 36 37 37 37 37 36 35 34 35 36 36 35 33 32 30 27
57 61 64 63 59 57 56 54 53 53 53 53 53 51 49 49 49 48 46 45 43 42 42 43 41 39 37 36 35 34 32 31 30 30 29 28 27 28 32 34 35 36 36 35 35 35 36 37 38 37 37 37 37 36 36 36 37 37 36 35 34 32 30
55 53 59 64 61 58 57 55 53 52 53 54 53 51 51 49 47 45 45 43 42 41 41 44 44 40 38 38 38 36 34 32 32 32 30 29 29 29 32 34 36 37 37 36 36 36 37 37 37 37 37 37 37 37 37 36 37 37 36 35 35 34 32
60 51 55 62 61 59 59 58 55 54 53 53 52 51 50 49 46 45 45 44 42 41 41 44 45 42 40 41 40 38 35 34 34 34 32 31 31 32 33 34 36 38 38 37 37 37 37 37 37 37 36 36 36 36 36 35 35 35 34 34 34 34 34
66 57 56 59 58 58 60 59 56 55 54 53 51 50 50 49 48 46 45 44 45 44 44 44 45 44 43 43 42 40 39 38 38 37 35 32 32 33 34 34 36 37 39 39 39 38 38 37 37 36 36 36 35 34 34 34 34 34 33 33 33 33 33
69 64 62 60 56 56 60 61 57 54 54 54 53 52 51 50 48 47 46 46 47 47 46 45 45 45 46 45 44 43 42 41 42 40 38 35 34 34 35 35 35 36 38 39 39 39 38 38 37 36 36 35 34 34 33 33 34 33 33 33 32 32 32
73 70 69 66 59 53 55 59 59 56 54 54 54 53 53 50 46 43 42 44 46 47 47 46 45 47 48 47 46 46 46 45 44 41 39 38 38 37 36 36 34 34 36 38 39 40 39 39 38 37 36 36 35 34 34 34 34 34 34 33 33 32 32
75 74 73 72 66 57 51 53 57 58 57 55 54 54 53 51 47 42 39 41 44 46 47 47 46 46 48 49 47 48 49 48 45 41 39 39 40 40 38 37 36 35 35 37 38 39 39 39 39 38 37 36 35 34 34 34 35 35 35 35 34 34 32
77 76 74 73 71 66 58 53 54 58 59 58 57 56 56 53 49 45 42 42 45 44 43 43 42 41 45 50 49 48 50 49 45 41 40 39 41 42 41 39 39 38 37 37 37 37 37 37 37 37 36 35 34 33 33 34 35 35 36 36 36 35 34
79 78 77 74 72 72 69 62 57 57 59 62 61 59 58 56 52 48 45 45 47 45 40 39 38 36 39 48 51 49 48 48 45 43 41 40 42 44 45 44 43 41 40 38 37 36 36 36 35 35 34 33 32 32 33 33 34 34 34 35 36 36 36
83 81 80 78 75 74 73 71 65 60 58 60 61 60 59 59 56 52 48 45 47 47 43 40 37 34 35 44 50 50 48 47 45 44 42 41 42 45 48 49 47 44 42 40 39 38 36 36 35 34 33 32 32 33 34 33 33 32 32 34 36 37 37
88 85 83 81 79 77 75 74 72 67 62 58 57 58 60 61 59 55 50 48 48 49 47 44 41 37 37 42 47 49 48 46 45 44 43 41 41 43 45 47 47 45 43 42 41 40 38 38 37 35 34 34 35 35 36 35 33 32 33 36 38 38 37
92 90 88 85 82 80 78 76 74 72 69 63 59 57 57 58 57 54 52 52 52 51 49 48 45 41 40 42 46 47 48 47 46 44 43 43 42 42 43 45 46 45 43 42 42 41 40 40 39 37 37 37 37 37 37 35 34 35 37 39 39 38 37
92 92 91 89 86 82 81 80 78 75 72 69 66 62 58 56 55 54 52 53 54 53 51 51 50 46 43 44 47 48 49 49 48 46 45 45 44 43 43 43 43 43 42 41 41 41 40 40 39 39 39 39 38 38 37 36 37 39 41 41 40 39 39
92 92 92 92 90 87 83 82 81 79 75 72 70 68 65 60 57 55 54 54 56 56 54 53 52 50 47 47 49 50 51 51 51 50 49 47 46 45 44 42 41 40 38 38 38 38 38 38 38 39 41 40 39 39 38 38 40 42 43 43 42 42 41
Wind_Direction
224 218 208 206 209 207 205 205 200 194 197 203 210 215 210 207 214 213 202 196 198 201 200 198 197 196 196 198 197 194 195 197 195 194 194 191 186 184 185 187 188 190 192 194 196 198 201 201 194 184 173 162 154 148 145 144 144 145 144 141 138 136 131
231 233 221 209 205 207 207 206 204 199 197 201 208 213 213 209 212 217 212 203 199 200 201 199 197 197 198 201 199 195 195 199 199 196 197 195 191 190 190 188 188 190 192 194 197 200 202 203 197 187 176 164 156 153 151 150 150 149 147 144 144 139 132
223 229 233 221 208 204 207 206 203 201 199 201 207 212 215 214 214 216 216 210 203 200 201 201 198 197 199 201 202 199 196 199 202 199 199 199 196 196 196 192 190 190 190 192 196 200 203 203 199 189 178 167 160 158 157 157 156 155 153 151 148 142 134
221 216 226 231 220 210 207 206 201 198 197 199 205 210 212 213 215 216 215 214 209 202 200 202 201 199 198 199 201 202 200 200 203 204 202 203 202 201 200 198 194 191 189 192 195 197 201 202 199 190 180 172 166 163 163 163 162 161 158 154 151 145 138
214 209 213 225 231 221 211 206 203 200 199 200 205 211 214 214 216 216 214 214 213 206 202 203 204 201 198 198 200 203 203 202 204 207 206 205 207 207 206 205 202 196 194 195 195 195 199 201 199 190 183 177 172 168 167 168 167 165 161 158 153 149 143
208 208 209 212 225 224 211 205 205 205 204 204 206 212 218 218 219 219 216 213 212 211 207 205 206 205 201 198 199 202 205 204 204 208 209 207 206 209 212 211 209 206 202 199 198 198 199 200 198 191 185 182 178 174 172 172 171 169 165 162 158 153 149
210 209 208 207 214 218 207 200 202 207 207 206 207 212 217 218 218 219 217 211 209 211 211 207 208 210 207 203 201 202 203 205 205 207 210 210 206 208 213 215 215 214 210 206 204 203 202 203 200 193 188 186 183 180 178 176 175 174 170 167 163 159 157
212 212 211 209 211 215 208 198 199 207 209 208 209 212 217 218 217 217 215 211 207 207 209 208 207 209 210 208 205 204 204 205 206 207 209 210 208 207 211 214 215 217 216 215 213 210 208 208 203 195 191 191 187 183 183 181 179 178 175 172 170 167 165
209 212 216 215 212 214 215 209 206 208 209 209 209 211 215 218 216 216 216 213 206 203 204 206 206 207 209 209 206 205 206 206 206 207 208 209 209 209 211 212 213 213 214 217 219 217 215 213 207 199 193 194 193 188 187 186 183 182 180 178 176 175 173
206 208 214 215 210 209 214 217 216 213 210 208 207 209 213 216 215 214 216 214 207 204 204 205 205 205 207 209 209 207 206 206 206 207 207 208 210 211 213 214 213 210 209 213 218 219 220 219 213 205 197 195 196 194 190 189 188 186 185 183 182 182 180
202 204 209 211 206 204 208 211 212 211 209 207 206 207 209 212 213 213 214 214 210 208 209 209 207 205 204 207 209 210 209 209 208 207 207 208 209 211 214 217 217 213 210 212 215 218 220 221 218 212 204 199 199 198 196 194 194 192 190 189 188 187 186
204 204 206 207 205 202 203 203 201 200 200 200 201 203 204 206 208 210 212 214 214 213 213 214 211 208 205 205 208 210 210 211 211 211 210 210 210 211 213 216 218 217 215 213 213 216 219 220 220 216 210 206 204 203 203 202 201 199 197 195 193 192 192
208 209 207 207 205 202 201 200 198 196 194 194 196 198 200 201 203 205 208 211 215 217 216 216 215 212 208 207 207 208 210 210 210 212 214 213 213 213 213 214 215 217 218 217 215 215 217 219 220 220 217 213 209 208 209 209 208 207 205 203 200 197 196
208 209 210 208 207 203 200 199 198 196 194 194 195 197 199 199 199 201 203 206 210 214 216 216 215 213 210 208 207 207 208 209 208 209 212 215 216 215 214 214 214 214 216 218 217 216 217 218 219 221 221 218 214 212 212 212 212 212 211 209 207 205 203
206 208 209 210 209 206 202 201 200 198 197 197 198 200 200 200 201 202 202 204 207 208 211 212 212 210 209 208 207 206 207 208 208 208 210 213 216 217 216 216 216 216 215 216 218 218 218 218 218 220 222 223 221 218 215 214 215 214 213 212 212 212 210
207 209 211 212 212 210 206 204 203 202 200 200 200 202 203 203 205 205 204 205 206 206 207 208 207 207 207 205 205 206 207 208 209 210 210 212 214 216 217 217 218 218 218 217 217 218 219 220 219 219 220 223 224 223 220 216 215 216 216 215 216 216 217
209 211 214 215 216 216 211 208 207 207 206 204 204 206 208 208 207 207 208 209 208 207 207 206 203 204 205 205 205 206 208 208 209 211 213 213 215 217 218 218 218 219 219 219 219 220 221 222 221 221 221 222 223 224 223 220 219 219 218 219 219 220 221
210 210 213 216 217 218 216 213 211 211 211 209 208 210 212 213 211 210 210 211 211 211 210 206 204 204 204 205 207 207 207 208 209 211 214 215 217 219 221 222 221 221 221 221 222 222 223 223 223 223 223 224 223 222 222 223 224 223 221 221 223 224 225
213 212 212 214 216 217 218 217 215 214 214 213 211 212 214 214 214 213 212 212 212 213 213 209 205 204 204 206 208 208 207 207 208 210 212 214 217 221 224 226 226 225 225 224 224 225 225 225 225 225 226 226 226 224 222 223 225 227 226 225 225 226 228
214 213 211 211 213 215 218 219 218 217 216 215 213 212 214 214 215 215 215 215 214 215 217 215 209 204 204 205 207 207 206 206 206 207 209 211 214 218 223 226 228 229 229 228 228 228 228 227 227 227 228 229 229 228 226 225 226 228 229 228 228 228 228
213 214 212 212 213 214 216 218 219 218 217 216 215 213 213 213 214 215 215 216 216 217 220 221 216 208 204 203 204 205 205 203 201 202 205 208 211 214 218 221 225 227 229 230 230 230 230 230 229 229 229 230 231 231 231 231 232 232 231 231 231 230 229
212 215 215 215 215 214 216 218 219 220 219 218 217 215 214 214 214 215 215 216 218 219 221 223 223 218 210 206 205 205 205 203 201 201 203 205 208 211 214 218 221 224 226 228 229 229 230 231 231 231 231 232 233 234 234 235 237 237 236 235 234 233 232
212 214 215 217 217 215 217 218 218 219 219 219 219 217 216 216 216 215 216 216 217 219 221 221 221 221 219 216 213 210 210 210 208 205 205 205 206 207 211 215 219 222 225 226 227 228 228 230 231 232 232 233 234 234 235 236 238 240 240 239 238 237 234
211 214 215 215 217 218 218 219 218 217 218 219 220 219 217 219 220 217 215 215 216 219 222 220 217 216 219 221 218 214 214 216 216 214 211 210 208 208 209 212 216 220 223 224 225 226 226 227 228 230 231 232 233 233 233 234 237 239 241 241 242 241 239
211 214 215 214 217 219 219 218 217 217 217 218 219 221 220 221 222 220 215 213 215 218 221 220 216 213 216 219 219 217 216 217 221 222 218 214 213 211 211 212 215 219 221 223 223 224 225 225 227 228 229 231 232 232 232 232 235 237 239 241 243 244 243
212 213 213 213 216 219 219 218 216 216 217 217 217 219 221 223 224 221 216 214 215 218 220 219 217 215 216 218 218 219 220 221 223 225 222 217 216 216 214 214 216 219 221 223 224 224 225 226 227 227 228 229 231 232 233 233 234 237 238 241 243 245 245
216 215 211 209 213 217 218 218 218 218 219 219 217 217 219 223 224 221 219 219 219 218 218 218 217 217 218 218 217 218 221 223 226 227 226 221 219 220 220 218 218 220 221 223 224 225 227 228 228 228 229 229 230 232 233 235 236 238 239 240 242 244 246
217 217 210 207 210 215 217 219 220 220 221 221 219 216 217 221 223 222 222 223 223 221 219 219 220 220 221 220 218 216 217 220 224 227 229 228 226 226 226 224 222 222 223 224 225 226 228 229 230 230 230 230 231 232 233 235 237 239 240 239 240 242 244
218 216 213 212 211 211 214 219 221 221 222 221 219 217 217 221 223 224 224 225 225 225 223 223 223 223 222 221 219 218 217 218 220 224 228 231 232 232 231 231 229 226 226 226 227 228 229 230 231 232 233 233 233 233 234 236 239 241 242 242 241 241 242
219 218 217 219 218 214 212 215 219 222 222 221 220 218 216 216 219 223 225 225 226 227 226 225 226 225 223 221 219 218 218 219 220 221 225 230 232 232 232 233 234 232 230 229 229 230 231 232 233 234 235 236 236 234 234 236 240 242 244 245 245 244 243
220 221 221 222 222 220 214 211 214 219 220 220 220 218 214 214 217 223 226 227 229 230 228 226 227 229 227 223 220 218 219 220 221 221 224 228 229 228 227 230 234 234 232 232 232 232 232 233 235 236 237 238 238 237 237 237 239 241 243 245 247 248 248
222 222 223 223 223 223 219 213 212 216 218 220 220 218 217 219 221 224 228 230 230 230 228 223 226 231 229 223 220 219 218 219 221 222 223 225 225 223 223 227 232 234 233 233 233 233 233 234 236 237 238 238 239 239 238 239 239 240 242 244 247 249 250
225 225 225 224 223 223 221 219 216 215 217 220 223 222 222 224 225 227 231 232 229 228 227 224 226 233 229 220 216 216 217 218 220 220 220 220 221 221 221 224 229 233 234 234 234 234 234 235 236 238 239 240 240 240 239 239 239 240 242 244 246 247 247
228 227 226 226 224 223 222 221 220 219 217 217 220 222 224 226 229 233 235 232 228 227 229 227 226 229 226 217 214 216 217 217 216 217 217 219 222 223 223 224 227 230 233 235 235 234 233 234 235 237 238 239 239 240 241 240 240 240 242 243 244 244 245
228 228 228 228 226 224 223 222 222 223 222 218 216 219 223 226 231 235 234 230 226 226 227 226 224 224 222 217 214 216 217 216 215 215 216 219 221 222 223 223 224 227 231 234 234 234 233 234 235 235 236 236 238 240 242 242 242 243 242 242 242 244 246
228 228 229 229 228 226 225 224 223 225 226 225 221 220 222 226 231 234 232 228 226 224 223 222 221 221 222 220 218 218 218 218 218 217 217 218 220 221 221 222 224 226 229 231 232 232 233 234 236 236 236 236 238 241 243 243 243 244 244 244 245 246 247
227 228 229 229 229 228 227 226 225 225 227 228 228 225 224 226 229 231 230 228 225 223 222 221 220 220 222 223 222 221 220 220 221 221 220 220 220 221 221 222 224 226 227 228 230 231 234 236 239 240 241 241 241 243 244 243 243 243 245 247 248 248 249
228 228 229 229 230 230 229 228 228 227 227 229 229 229 227 227 228 230 230 228 226 225 224 223 221 219 221 223 223 221 221 220 220 221 222 222 222 222 222 222 223 224 226 228 230 233 236 239 241 242 243 243 243 244 245 244 243 244 245 247 249 250 250
Height
5885 5886 5886 5888 5889 5892 5893 5895 5896 5897 5899 5900 5902 5903 5905 5907 5908 5909 5910 5911 5913 5916 5918 5920 5922 5924 5926 5927 5929 5930 5932 5933 5934 5935 5936 5937 5937 5938 5939 5940 5941 5943 5944 5945 5945 5946 5947 5948 5949 5950 5951 5952 5953 5953 5953 5954 5954 5955 5955 5956 5956 5956 5956
5884 5885 5886 5886 5888 5890 5892 5893 5895 5896 5897 5899 5900 5902 5903 5905 5907 5908 5909 5910 5912 5914 5916 5918 5920 5923 5925 5926 5928 5930 5931 5932 5933 5934 5936 5937 5937 5938 5939 5940 5941 5942 5943 5944 5945 5946 5947 5948 5949 5950 5951 5952 5953 5954 5954 5954 5955 5955 5956 5956 5956 5956 5956
5883 5884 5885 5886 5887 5888 5890 5891 5893 5895 5896 5897 5899 5900 5902 5904 5905 5906 5907 5909 5910 5912 5914 5916 5919 5921 5923 5925 5927 5929 5931 5932 5933 5934 5935 5936 5937 5938 5939 5940 5940 5941 5943 5944 5945 5946 5947 5948 5949 5950 5952 5952 5953 5954 5954 5955 5955 5956 5956 5957 5957 5957 5957
5881 5882 5884 5885 5885 5886 5888 5890 5892 5894 5895 5896 5898 5899 5900 5901 5903 5904 5905 5907 5908 5910 5913 5915 5916 5918 5921 5923 5925 5928 5930 5931 5932 5933 5934 5935 5936 5937 5938 5939 5940 5941 5942 5943 5944 5945 5947 5948 5949 5950 5952 5952 5953 5954 5955 5955 5956 5956 5956 5957 5957 5957 5957
5878 5879 5880 5882 5884 5885 5887 5889 5891 5893 5894 5895 5896 5897 5898 5899 5900 5902 5904 5905 5906 5908 5910 5912 5914 5916 5918 5921 5923 5926 5928 5930 5931 5932 5933 5935 5936 5937 5938 5939 5940 5941 5941 5942 5943 5945 5946 5947 5949 5950 5951 5952 5953 5954 5955 5955 5956 5956 5956 5956 5957 5957 5957
5874 5876 5878 5881 5883 5885 5886 5887 5889 5891 5893 5894 5895 5896 5897 5898 5899 5901 5902 5903 5904 5906 5908 5910 5913 5915 5917 5919 5921 5923 5925 5928 5930 5931 5932 5933 5935 5936 5937 5938 5939 5940 5941 5942 5943 5944 5945 5946 5948 5949 5951 5952 5953 5954 5955 5955 5955 5956 5956 5956 5956 5957 5957
5871 5873 5876 5879 5881 5883 5884 5885 5887 5889 5890 5892 5893 5894 5895 5896 5898 5899 5901 5902 5903 5904 5906 5909 5912 5914 5916 5918 5919 5921 5923 5926 5928 5930 5931 5932 5934 5935 5936 5937 5939 5940 5941 5941 5942 5943 5944 5946 5947 5949 5950 5951 5952 5953 5954 5955 5955 5955 5956 5956 5956 5957 5957
5867 5870 5873 5876 5879 5881 5883 5884 5885 5886 5888 5889 5891 5893 5894 5896 5897 5898 5899 5900 5901 5902 5904 5907 5909 5912 5914 5916 5918 5920 5921 5923 5925 5928 5930 5931 5932 5933 5935 5936 5938 5939 5940 5941 5942 5943 5944 5945 5946 5948 5949 5950 5951 5952 5953 5954 5954 5955 5956 5956 5956 5957 5957
5865 5867 5870 5873 5876 5878 5880 5881 5882 5884 5886 5887 5890 5892 5893 5894 5896 5897 5898 5899 5900 5901 5902 5904 5906 5909 5911 5913 5915 5917 5919 5921 5923 5926 5928 5930 5932 5932 5933 5934 5936 5937 5939 5940 5941 5942 5943 5944 5945 5947 5949 5950 5951 5951 5952 5953 5954 5954 5955 5956 5956 5957 5957
5861 5864 5866 5868 5871 5874 5876 5878 5879 5881 5883 5885 5888 5890 5892 5893 5894 5895 5896 5898 5899 5900 5900 5902 5903 5906 5908 5911 5913 5914 5916 5918 5920 5923 5926 5928 5930 5931 5932 5933 5934 5935 5937 5938 5940 5941 5942 5943 5944 5946 5947 5948 5949 5950 5951 5952 5952 5953 5954 5955 5955 5956 5957
5856 5858 5861 5863 5866 5868 5870 5873 5876 5878 5881 5884 5886 5888 5890 5891 5892 5894 5895 5897 5898 5898 5899 5900 5901 5903 5906 5908 5910 5911 5914 5916 5918 5920 5923 5925 5927 5929 5931 5931 5933 5934 5935 5936 5938 5939 5940 5942 5943 5945 5946 5947 5948 5949 5950 5950 5951 5952 5953 5953 5954 5955 5956
5852 5853 5855 5858 5861 5863 5865 5867 5870 5872 5875 5879 5882 5885 5887 5889 5890 5891 5893 5894 5896 5897 5897 5899 5900 5901 5903 5905 5907 5909 5912 5914 5917 5919 5920 5922 5924 5926 5928 5930 5931 5932 5933 5934 5935 5937 5938 5940 5941 5943 5944 5946 5947 5947 5948 5949 5950 5951 5951 5952 5953 5954 5955
5851 5851 5852 5854 5857 5860 5862 5864 5865 5867 5870 5872 5876 5879 5881 5884 5886 5887 5889 5891 5893 5894 5896 5897 5898 5899 5901 5903 5905 5907 5910 5912 5915 5917 5918 5919 5921 5922 5924 5927 5929 5930 5932 5933 5933 5935 5936 5938 5939 5941 5942 5944 5945 5946 5947 5948 5948 5949 5950 5951 5952 5953 5954
5849 5850 5850 5852 5854 5857 5860 5862 5864 5866 5867 5869 5871 5874 5876 5878 5880 5882 5884 5887 5889 5891 5893 5894 5896 5897 5899 5901 5903 5905 5908 5910 5911 5913 5914 5916 5918 5919 5922 5924 5926 5928 5929 5930 5932 5933 5934 5936 5937 5939 5940 5942 5943 5944 5945 5946 5947 5948 5949 5950 5951 5951 5952
5846 5847 5848 5850 5852 5854 5857 5859 5862 5864 5866 5868 5869 5872 5874 5876 5877 5878 5880 5882 5884 5886 5888 5890 5892 5894 5896 5898 5901 5903 5905 5906 5908 5909 5911 5912 5914 5917 5919 5921 5923 5925 5926 5928 5930 5931 5932 5933 5935 5936 5938 5939 5941 5942 5943 5944 5945 5946 5947 5948 5949 5950 5950
5842 5844 5846 5848 5849 5851 5853 5856 5858 5860 5863 5865 5867 5869 5872 5874 5875 5877 5878 5879 5880 5882 5884 5886 5889 5891 5893 5896 5898 5899 5901 5903 5905 5906 5908 5909 5912 5914 5916 5918 5920 5922 5924 5926 5927 5929 5930 5931 5933 5934 5936 5937 5938 5940 5941 5942 5943 5944 5944 5945 5946 5947 5948
5837 5840 5842 5844 5846 5847 5849 5852 5855 5857 5859 5862 5865 5867 5869 5871 5873 5875 5876 5877 5878 5880 5881 5883 5885 5888 5890 5892 5894 5895 5897 5900 5902 5904 5905 5907 5909 5911 5913 5915 5917 5919 5921 5923 5925 5926 5927 5929 5931 5933 5934 5935 5936 5937 5939 5940 5940 5941 5941 5942 5943 5944 5945
5833 5835 5837 5839 5841 5843 5845 5848 5851 5853 5855 5858 5861 5863 5866 5868 5870 5872 5873 5874 5876 5877 5878 5880 5883 5885 5887 5889 5890 5892 5895 5897 5899 5901 5903 5905 5908 5910 5912 5913 5915 5917 5919 5921 5923 5924 5925 5927 5929 5930 5931 5932 5933 5935 5936 5937 5937 5938 5938 5939 5940 5941 5942
5830 5832 5833 5835 5836 5838 5841 5844 5847 5849 5851 5853 5856 5859 5861 5864 5867 5869 5870 5870 5872 5874 5875 5876 5878 5881 5884 5886 5888 5890 5892 5894 5896 5898 5901 5903 5906 5908 5910 5912 5914 5916 5918 5919 5920 5921 5923 5925 5926 5927 5929 5930 5931 5932 5934 5934 5934 5935 5935 5936 5937 5938 5939
5825 5828 5830 5831 5832 5833 5836 5839 5842 5845 5847 5849 5852 5855 5857 5860 5863 5865 5867 5868 5870 5871 5873 5874 5875 5876 5879 5882 5885 5887 5889 5891 5893 5896 5898 5900 5902 5904 5907 5910 5912 5914 5916 5917 5917 5919 5921 5922 5923 5925 5926 5927 5928 5930 5931 5932 5932 5932 5932 5933 5934 5935 5936
5820 5823 5825 5826 5827 5829 5831 5833 5836 5840 5842 5845 5848 5851 5853 5855 5858 5861 5863 5866 5868 5870 5872 5876 5877 5876 5875 5877 5880 5883 5886 5888 5890 5892 5894 5896 5898 5900 5903 5906 5908 5910 5911 5913 5914 5916 5918 5919 5920 5921 5922 5924 5925 5927 5928 5929 5930 5930 5930 5931 5931 5932 5933
5815 5817 5819 5820 5822 5824 5826 5829 5832 5835 5838 5841 5844 5846 5848 5850 5852 5855 5858 5862 5866 5868 5871 5875 5878 5879 5878 5877 5878 5880 5883 5886 5887 5888 5890 5891 5893 5896 5899 5902 5904 5905 5906 5908 5910 5912 5913 5915 5917 5918 5919 5920 5922 5924 5926 5927 5927 5927 5928 5928 5929 5929 5931
5808 5811 5813 5815 5817 5819 5821 5824 5828 5830 5832 5836 5839 5841 5843 5845 5847 5850 5853 5857 5861 5865 5867 5870 5875 5879 5881 5881 5880 5880 5881 5883 5884 5885 5886 5887 5890 5892 5895 5897 5899 5901 5902 5903 5905 5907 5909 5911 5913 5914 5915 5917 5919 5921 5923 5924 5924 5924 5925 5926 5926 5927 5928
5802 5804 5807 5809 5812 5815 5817 5820 5823 5826 5828 5831 5833 5836 5840 5843 5843 5845 5848 5852 5856 5860 5863 5866 5870 5873 5876 5879 5879 5879 5879 5881 5882 5884 5884 5886 5887 5889 5891 5893 5894 5896 5897 5899 5901 5902 5904 5906 5907 5909 5911 5913 5915 5917 5919 5920 5920 5921 5922 5923 5924 5925 5926
5796 5798 5801 5805 5808 5810 5813 5815 5818 5821 5825 5827 5829 5833 5836 5838 5839 5841 5844 5847 5852 5855 5859 5863 5865 5867 5870 5874 5875 5875 5876 5878 5880 5882 5883 5885 5886 5887 5888 5889 5890 5891 5892 5894 5896 5898 5899 5901 5902 5905 5907 5909 5911 5912 5914 5915 5916 5917 5919 5920 5921 5922 5924
5790 5793 5796 5800 5803 5805 5808 5811 5813 5817 5820 5822 5825 5829 5832 5834 5836 5840 5843 5845 5848 5851 5854 5858 5861 5863 5866 5869 5871 5872 5874 5875 5877 5879 5881 5883 5883 5884 5885 5885 5886 5888 5889 5891 5893 5894 5896 5897 5899 5901 5903 5905 5907 5908 5910 5912 5913 5914 5916 5917 5918 5920 5921
5783 5786 5789 5793 5797 5799 5802 5805 5809 5812 5814 5817 5821 5825 5827 5829 5832 5836 5840 5842 5844 5847 5850 5854 5857 5860 5862 5864 5866 5868 5871 5873 5875 5876 5878 5880 5881 5881 5882 5882 5883 5885 5886 5888 5889 5891 5892 5894 5896 5899 5900 5902 5903 5905 5906 5908 5910 5911 5913 5914 5915 5916 5917
5777 5780 5783 5786 5790 5793 5796 5799 5803 5806 5809 5811 5816 5821 5823 5825 5828 5831 5835 5838 5841 5843 5846 5849 5852 5855 5857 5859 5861 5863 5865 5868 5871 5873 5875 5877 5878 5879 5880 5880 5881 5882 5884 5885 5886 5888 5890 5892 5894 5896 5898 5899 5901 5902 5904 5905 5906 5908 5910 5911 5912 5913 5913
5771 5774 5776 5779 5783 5787 5791 5794 5797 5801 5804 5806 5811 5816 5819 5821 5824 5827 5831 5834 5836 5839 5842 5845 5847 5850 5852 5854 5857 5858 5860 5863 5866 5869 5872 5874 5876 5877 5878 5879 5879 5880 5882 5883 5884 5886 5887 5889 5891 5893 5895 5897 5899 5901 5902 5903 5904 5905 5906 5907 5907 5908 5910
5764 5768 5769 5772 5776 5780 5785 5789 5792 5795 5799 5802 5806 5810 5814 5817 5820 5823 5826 5829 5832 5835 5838 5840 5843 5845 5848 5850 5853 5854 5856 5859 5862 5865 5868 5870 5871 5873 5875 5876 5878 5879 5880 5881 5882 5884 5885 5886 5888 5890 5892 5894 5896 5898 5899 5900 5901 5902 5902 5903 5903 5904 5906
5757 5761 5764 5766 5769 5773 5778 5782 5786 5789 5793 5797 5800 5804 5808 5812 5815 5818 5821 5824 5827 5830 5833 5836 5839 5841 5844 5846 5849 5851 5853 5855 5858 5861 5864 5866 5867 5869 5871 5873 5875 5876 5878 5879 5880 5881 5883 5884 5886 5887 5890 5891 5893 5895 5897 5897 5898 5899 5899 5899 5900 5900 5901
5750 5753 5757 5760 5764 5768 5772 5776 5780 5784 5787 5791 5794 5799 5803 5806 5809 5812 5816 5819 5822 5825 5828 5831 5834 5837 5838 5841 5844 5846 5848 5852 5855 5857 5859 5861 5863 5864 5867 5869 5870 5872 5874 5876 5877 5879 5881 5882 5883 5885 5887 5889 5891 5892 5893 5894 5895 5896 5896 5897 5897 5897 5898
5743 5746 5749 5754 5758 5762 5766 5771 5774 5778 5782 5785 5789 5793 5797 5800 5803 5807 5810 5814 5816 5820 5824 5827 5830 5831 5833 5835 5838 5841 5844 5847 5850 5853 5854 5856 5858 5860 5862 5864 5866 5868 5870 5873 5875 5877 5879 5880 5881 5883 5884 5886 5888 5888 5889 5890 5891 5892 5894 5894 5894 5894 5894
5734 5738 5742 5746 5751 5756 5761 5765 5769 5772 5776 5780 5784 5788 5791 5794 5797 5801 5805 5808 5811 5815 5819 5823 5825 5827 5828 5830 5833 5836 5839 5843 5845 5848 5850 5852 5853 5855 5857 5859 5861 5864 5867 5870 5872 5874 5876 5877 5879 5880 5882 5883 5884 5884 5884 5885 5887 5889 5891 5891 5889 5889 5889
5726 5730 5734 5738 5743 5749 5754 5759 5763 5766 5770 5774 5778 5782 5786 5789 5792 5796 5800 5803 5806 5810 5814 5818 5821 5823 5825 5827 5829 5832 5835 5838 5840 5842 5845 5846 5848 5850 5852 5854 5857 5860 5863 5866 5868 5870 5872 5873 5874 5876 5878 5879 5879 5880 5880 5882 5884 5886 5886 5885 5884 5885 5886
5718 5722 5726 5730 5735 5741 5747 5752 5757 5760 5764 5768 5772 5776 5780 5784 5787 5791 5794 5797 5801 5805 5809 5813 5816 5818 5821 5823 5826 5828 5831 5833 5835 5838 5840 5842 5844 5846 5848 5850 5853 5855 5858 5861 5863 5865 5867 5868 5870 5872 5873 5874 5875 5876 5878 5880 5881 5881 5880 5879 5880 5882 5882
5711 5715 5719 5723 5727 5733 5739 5744 5749 5754 5758 5762 5766 5771 5775 5779 5782 5785 5789 5792 5796 5799 5803 5808 5811 5814 5816 5818 5821 5824 5826 5828 5830 5833 5835 5837 5839 5841 5843 5846 5848 5850 5854 5856 5858 5860 5862 5864 5866 5868 5868 5870 5872 5873 5875 5877 5877 5875 5875 5876 5877 5878 5878
5703 5707 5711 5715 5720 5725 5730 5736 5742 5747 5752 5756 5760 5764 5769 5773 5777 5780 5783 5787 5790 5794 5798 5802 5806 5809 5811 5813 5816 5818 5821 5823 5825 5828 5830 5832 5835 5837 5839 5841 5844 5846 5849 5852 5854 5856 5858 5860 5862 5863 5864 5866 5868 5870 5871 5873 5872 5871 5871 5872 5872 5873 5874